Regional Weather Roundup
Issued by NWS

Home | Current Version | Previous Version | Graphics & Text | Print | Product List | Glossary On
Versions: 1 2 3 4 5 6 7 8 9 10 11 12 13 14 15 16 17 18 19 20 21 22 23 24 25 26 27
000
ASUS45 KTFX 090010
RWRMT
MONTANA REGIONAL WEATHER ROUNDUP
NATIONAL WEATHER SERVICE GREAT FALLS MT
500 PM MST THU DEC 08 2016

NOTE: "FAIR" INDICATES FEW OR NO CLOUDS BELOW 12000 FEET WITH NO
SIGNIFICANT WEATHER AND/OR OBSTRUCTIONS TO VISIBILITY.

MTZ001>007-043-090100-
WEST OF THE DIVIDE

CITY           SKY/WX    TMP DP  RH WIND       PRES   REMARKS
KALISPELL      CLEAR      8  -3  61 N15       30.23F WCI  -9
MISSOULA       CLEAR     14   5  67 CALM      30.19S
BUTTE          CLOUDY     5  -2  72 S15       30.04F WCI -13
MULLAN PASS    CLOUDY     1  -3  83 VRB5      29.92F
ANACONDA         N/A     10   0  61 S6        30.06F WCI   1
DEER LODGE       N/A      5  -4  66 W5        30.11S
EUREKA           N/A      1  -6  71 E7        30.33F WCI -11
HAMILTON         N/A     16   3  57 CALM      30.15S
LIBBY            N/A     12   3  67 CALM      30.28F
PLAINS           N/A     17   3  54 CALM      30.25
RONAN            N/A     13   3  64 CALM      30.22F
$$

MTZ008-052>055-090100-
SOUTHWEST MONTANA

CITY           SKY/WX    TMP DP  RH WIND       PRES   REMARKS
BOZEMAN        CLOUDY     9   0  67 CALM      30.17F
DILLON         CLOUDY     8  -2  63 CALM      30.07F
W YELLOWSTONE  CLOUDY     5  -2  72 CALM      30.06F
ENNIS          PTCLDY     5   0  78 N5        30.10F
THREE FORKS      N/A      8 -62   3 CALM      30.16F
$$

MTZ009-010-012-014-046-048-049-054-090100-
EAST SLOPES AND CENTRAL MONTANA

CITY           SKY/WX    TMP DP  RH WIND       PRES   REMARKS
CUT BANK       CLOUDY    -2  -8  76 E7        30.34F WCI -15
GREAT FALLS    CLOUDY    -2  -7  79 SE3       30.36S
MALMSTROM AFB  CLOUDY    -2  -6  84 NE3       30.39S
HELENA         CLOUDY     2  -6  69 NW8       30.27S WCI -12
CHOTEAU          N/A      0  -6  78 MISG      30.35S
$$

MTZ011-013-016-021-045-047-050-051-090100-
NORTH CENTRAL MONTANA

CITY           SKY/WX    TMP DP  RH WIND       PRES   REMARKS
HAVRE          CLOUDY     0  -7  72 NE7       30.51F WCI -13
LEWISTOWN      CLOUDY     0  -5  79 SE7       30.30F WCI -13
N BAR RANCH      N/A      0  -8  71 SE6       30.29F WCI -12
CHINOOK          N/A      0  -8  71 CALM      30.55S
$$

MTZ017>020-022>027-061-062-090100-
NORTHEAST MONTANA

CITY           SKY/WX    TMP DP  RH WIND       PRES   REMARKS
GLASGOW        CLEAR      0  -6  76 VRB3      30.56F
JORDAN           N/A      0  -6  76 E8        30.50F WCI -14
SIDNEY         CLOUDY    -7 -13  75 CALM      30.62S
WOLF POINT     CLEAR      1  -7  68 CALM      30.62S
PLENTYWOOD       N/A     -6 -11  77 NW6       30.58S WCI -18
POPLAR           N/A      1  -8  66 CALM      30.62S
$$

MTZ028>42-056>058-090100-
SOUTHCENTRAL AND SOUTHEAST MONTANA

CITY           SKY/WX    TMP DP  RH WIND       PRES   REMARKS
BAKER          CLOUDY    -6 -11  79 CALM      30.50F
BILLINGS       PTCLDY     8  -2  63 E7        30.34F WCI  -3
LIVINGSTON     CLOUDY     2  -4  76 E12       30.20F WCI -15
MILES CITY     CLEAR      2  -7  66 NE7       30.51F WCI -11
BIG TIMBER     CLOUDY     3  -2  78 E7        30.27F WCI  -9
EKALAKA          N/A     -3 -14  59 W1        30.34F
FORSYTH          N/A      5  -6  61 NE5       30.47F
LAUREL           N/A      9  -9  44 NE7       30.27F WCI  -2
ROUNDUP          N/A      7  -8  50 NE6       30.25S WCI  -3
$$

REGIONAL REPORTS...DAKOTAS

CITY           SKY/WX    TMP DP  RH WIND       PRES   REMARKS
WILLISTON      CLOUDY    -5 -12  72 W9        30.62F WCI -22
MINOT          CLOUDY     0  -7  72 W10       30.59S WCI -16
DICKINSON      CLEAR     -8 -12  83 NW9       30.52R WCI -25
BEACH            N/A     -6  -9  84 CALM      30.55F
CROSBY           N/A     -8 -13  77 W9        30.62F WCI -25
TIOGA            N/A     -8 -11  84 W10       30.58S WCI -26
WATFORD CITY     N/A     -8 N/A N/A CALM      30.60F
BISMARCK       PTCLDY     1  -5  75 NW10      30.63F WCI -15
GRAND FORKS    FLURRIES  10   5  80 NW13      30.59R WCI  -5
FARGO          LGT SNOW  13   6  74 NW14      30.59R WCI  -2
BUFFALO SD       N/A     -1  -7  75 N10       30.41F WCI -17
RAPID CITY     CLEAR      0  -8  69 NE9       30.48S WCI -15
$$

REGIONAL REPORTS...WYOMING/IDAHO/WASHINGTON

CITY           SKY/WX    TMP DP  RH WIND       PRES   REMARKS
GILLETTE       CLOUDY    -3  -7  82 E5        30.30F
SHERIDAN       CLOUDY    -3  -9  75 CALM      30.31F
BUFFALO WY     CLOUDY     2  -5  72 S7        30.23F WCI -11
CODY           CLOUDY    -3  -8  79 S7        30.19F WCI -16
YELLOWSTONE LA   N/A      4  -5  66 NW3       30.02F
IDAHO FALLS    LGT SNOW  17  12  80 N9        30.15F VSB 1   WCI   6
SALMON         CLOUDY    12   3  67 CALM      30.14S
BOISE          CLOUDY    25  22  88 SE12      30.09F FOG     WCI  14
SPOKANE        MOCLDY    21   6  52 NE8       30.14R WCI  11
$$

REGIONAL REPORTS...ALBERTA

CITY           SKY/WX    TMP DP  RH WIND       PRES   REMARKS
EDMONTON       CLEAR     -8 -15  71 NE2       30.60S
CALGARY        PTCLDY    -6 -11  77 E7        30.39S WCI -20
LETHBRIDGE     FLURRIES  -6  -9  84 E3        30.47S
MEDICINE HAT   PTCLDY    -9 -13  84 S3        30.56F
WATERTON GATE    N/A     -8 -13  77 NE3         N/A
CARDSTON         N/A     -8 -13  77 N1          N/A
MILK RIVER       N/A     -6  -9  84 NE3         N/A
ONEFOUR          N/A     -6  -9  84 W3          N/A
$$

REGIONAL REPORTS...SASKATCHEWAN

CITY           SKY/WX    TMP DP  RH WIND       PRES   REMARKS
SWIFT CURRENT  FLURRIES  -6  -9  84 W5        30.51F
REGINA         PTCLDY    -6  -9  84 W5        30.59S
SASKATOON      CRYSTALS  -8 -15  71 NW8       30.67S WCI -23
VAL MARIE        N/A    -15 -20  76 E3          N/A
ROCKGLEN         N/A     -8 -13  77 NW2         N/A
ASSINIBOIA       N/A     -4  -9  77 NE1         N/A
$$




USA.gov is the U.S. government's official web portal to all federal, state and local government web resources and services.